Location: Lugano
(46.0000°N, 8.9670°E)
Time: 23:36:19
(UTC+01:00)

Envisat - Visible Passes

Search period start: 12 March 2026 00:00
Search period end: 22 March 2026 00:00
Orbit: 761 x 763 km, 98.4° (Epoch: 12 March)

Date Brightness Start Highest point End Pass type
(mag) Time Alt. Az. Time Alt. Az. Time Alt. Az.
12 Mar 5.6 02:21:43 10° NNE 02:22:59 16° NE 02:22:59 16° NE visible
12 Mar 4.5 04:00:34 10° N 04:03:07 26° NNW 04:03:07 26° NNW visible
13 Mar 4.5 03:22:27 10° N 03:25:00 30° N 03:25:00 30° N visible
13 Mar 5.0 05:03:43 10° NNW 05:05:07 12° NW 05:05:07 12° NW visible
14 Mar 5.0 02:44:45 10° NNE 02:46:51 24° NE 02:46:51 24° NE visible
14 Mar 4.5 04:24:19 10° N 04:27:00 21° NW 04:27:00 21° NW visible
15 Mar 5.7 02:07:36 10° NE 02:08:44 15° NE 02:08:44 15° NE visible
15 Mar 4.2 03:45:56 10° N 03:48:53 32° NNW 03:48:53 32° NNW visible
16 Mar 4.4 03:07:59 10° NNE 03:10:45 33° NNE 03:10:45 33° NNE visible
16 Mar 4.8 04:48:24 10° NNW 04:50:53 16° NW 04:50:53 16° NW visible
17 Mar 5.1 02:30:27 10° NNE 02:32:37 23° NE 02:32:37 23° NE visible
17 Mar 4.2 04:09:34 10° N 04:12:45 27° NW 04:12:45 27° NW visible
18 Mar 5.7 01:53:38 10° NE 01:54:30 13° ENE 01:54:30 13° ENE visible
18 Mar 4.0 03:31:22 10° N 03:34:38 39° N 03:34:38 39° N visible
18 Mar 5.1 05:14:00 10° NW 05:14:19 10° NW 05:14:38 10° WNW visible
19 Mar 4.4 02:53:33 10° NNE 02:56:30 34° NE 02:56:30 34° NE visible
19 Mar 4.5 04:33:26 10° NNW 04:36:38 20° NW 04:36:38 20° NW visible
20 Mar 5.2 02:16:14 10° NE 02:18:23 21° NE 02:18:23 21° NE visible
20 Mar 3.9 03:54:54 10° N 03:58:31 35° NW 03:58:31 35° NW visible
21 Mar 5.9 01:40:03 10° ENE 01:40:15 10° ENE 01:40:15 10° ENE visible
21 Mar 3.8 03:16:51 10° NNE 03:20:23 46° N 03:20:23 46° N visible
21 Mar 4.8 04:57:44 10° NNW 05:00:05 13° NW 05:00:31 13° WNW visible
